Regional Weather Roundup
Issued by NWS Sterling, VA

Home | Current Version | Previous Version | Graphics & Text | Print | Product List | Glossary On
Versions: 1 2 3 4 5 6 7 8 9 10 11 12 13 14 15 16 17 18 19 20 21 22 23 24 25 26 27 28 29 30 31 32 33 34 35 36 37 38 39 40 41 42 43 44 45 46 47 48 49 50
000
ASUS41 KLWX 011810
RWRLWX

REGIONAL WEATHER ROUNDUP
NATIONAL WEATHER SERVICE BALTIMORE MD/WASHINGTON DC
100 PM EST SUN MAR 01 2015

Note: "FAIR" indicates few or no clouds below 12,000 feet
with no significant weather and/or obstructions to visibility.
 TC=TEMPERATURE CELSIUS

 * =Non NWS site. Station does not report precipitation (e.g. rain,
    snow, etc.), thunder, or fog.

DCZ001-MDZ009-015-VAZ040>042-051-053>054-011900-
WASHINGTON METRO

CITY           SKY/WX    TMP DP  RH WIND       PRES   REMARKS
WASHINGTON NAT FRZ RAIN  30  25  81 S5        30.54F
DULLES         FRZ RAIN  27  23  85 S9        30.50F WCI  18
ANDREWS AFB    FRZ RAIN  29  26  91 W2        30.50F FOG
FT BELVOIR     FRZ RAIN  28  25  89 W1        30.52F
QUANTICO       MIX PCPN  28  25  88 S5        30.54F FOG
COLLEGE PARK*  CLOUDY    30  28  93 CALM      30.53F
LEESBURG*      MIX PCPN  30  30 100 S9        30.49F WCI  22
GAITHERSBURG*  CLOUDY    28  25  86 CALM      30.52F

$$

MDZ006>007-011-014-011900-
BALTIMORE METRO

CITY           SKY/WX    TMP DP  RH WIND       PRES   REMARKS
BWI AIRPORT    FRZ RAIN  28  26  92 S3        30.51F FOG
MD SCIENCE CTR   N/A      1   1 100 MISG      30.52F
MARTIN STATE   CLOUDY    28  27  93 SE5       30.56F FOG
ANNAPOLIS      FRZ RAIN  27  24  89 SE3       30.54F FOG
FORT MEADE*    CLOUDY    28  27  93 CALM      30.55F VSB 1

$$

MDZ012-015-019>023-011900-
MARYLAND EASTERN SHORE

CITY           SKY/WX    TMP DP  RH WIND       PRES   REMARKS
OCEAN CITY     FRZ RAIN  30  28  92 N6        30.51F FOG
SALISBURY      MIX PCPN  32  28  85 NW3       30.52F FOG
BAY BRIDGE AP* LGT SNOW  28  27  93 CALM      30.54F
CAMBRIDGE*     CLOUDY    30  27  86 CALM      30.54F
EASTON*        LGT SNOW  28  28 100 CALM      30.57F VSB 1

$$

MDZ017>025-011900-
SOUTHERN MARYLAND

CITY           SKY/WX    TMP DP  RH WIND       PRES   REMARKS
PATUXENT RIVER FRZ RAIN  26  22  84 CALM      30.54F FOG
ST INIGOES     FRZ RAIN  28  23  81 CALM      30.53F
LEONARDTOWN*   CLOUDY    28  27  93 CALM      30.55F

$$

MDZ003>005-011900-
NORTH CENTRAL MARYLAND

CITY           SKY/WX    TMP DP  RH WIND       PRES   REMARKS
FREDERICK*     LGTSLEET  30  23  74 SW9       30.53F WCI  22
HAGERSTOWN APT MIX PCPN  27  22  81 S9        30.43F WCI  18
WESTMINSTER*   LGT SNOW  27  25  93 S6        30.46F

$$

MDZ501>502-011900-
WESTERN MARYLAND

CITY           SKY/WX    TMP DP  RH WIND       PRES   REMARKS
OAKLAND*       CLOUDY    32 N/A N/A SW12G20   30.26F FOG     WCI  23
CUMBERLAND*    CLOUDY    28  25  86 CALM      30.44F

$$

VAZ025>031-011900-
SHENANDOAH VALLEY

CITY           SKY/WX    TMP DP  RH WIND       PRES   REMARKS
WINCHESTER*    MIX PCPN  32  23  69 S7        30.43F
FRONT ROYAL*   CLOUDY    30  27  86 CALM      30.43F
LURAY*         CLOUDY    34  28  80 SW3       30.42F
NEW MARKET*    CLOUDY    32  24  71 W3        30.42F
STAUNTON*      CLOUDY    33  24  69 SW7       30.43F
WAYNESBORO*    CLOUDY    30  23  74 CALM      30.40F

$$

WVZ021-048>050-054>055-011900-
EASTERN WEST VIRGINIA PANHANDLE

CITY           SKY/WX    TMP DP  RH WIND       PRES   REMARKS
MARTINSBURG    FRZ RAIN  30  25  81 S7        30.44F
PETERSBURG*    NOT AVBL

$$

VAZ036>039-050-011900-
CENTRAL FOOTHILLS

CITY           SKY/WX    TMP DP  RH WIND       PRES   REMARKS
CHARLOTTESVILL LGT RAIN  29  20  69 S3        30.47F
CULPEPER*      MIX PCPN  30  27  86 S3        30.50F
ORANGE*        CLOUDY    30  27  86 CALM      30.50F
GORDONSVILLE*  CLOUDY    28  22  78 CALM      30.48F HAZE
WARRENTON*     LGT RAIN  30  29  98 CALM      30.50F

$$

VAZ055>057-011900-
NORTH AND CENTRAL PIEDMONT

CITY           SKY/WX    TMP DP  RH WIND       PRES   REMARKS
FREDERICKSBRG* MIX PCPN  30  30 100 CALM      30.52F
STAFFORD*      MIX PCPN  28  52 100 S3        30.56F

$$

NCZ024-NYZ072-PAZ021-071-VAZ022-071-011900-
OTHER REGIONAL OBSERVATIONS

CITY           SKY/WX    TMP DP  RH WIND       PRES   REMARKS
NEW YORK CITY  LGT SNOW  28  17  63 MISG      30.55F
PHILADELPHIA   SLEET     26  21  81 S7        30.55F
PITTSBURGH     LGT SNOW  33  32  96 S6        30.28F VSB 1
ROANOKE        CLOUDY    32  16  51 E3        30.47F
RICHMOND       FRZ DRZL  29  25  85 CALM      30.52F FOG
RALEIGH        LGT RAIN  33  30  88 NE6       30.47F FOG

$$

ANZ530>537-011900-
MARINE OBSERVATIONS

STATION/POSITION TIME  TEMP    WIND        PRES
                       AIR SEA DIR/SP/G
                 (UTC) (F)     (DEG/KT/KT) (MB)
THOMAS PT LIGHT  1800   25 31  190/  3/  3 1034.9F
BALT KEY BRIDGE  1700   26     140/  6/  7 1035.0F
COVE POINT       1700   24     190/  2/  2 1035.1F
LEWISETTA        1700   27 32              1034.7F
SOLOMONS ISLAND  1700      32                N/A

$$




USA.gov is the U.S. government's official web portal to all federal, state and local government web resources and services.